[[{"header":{"parameterUnit":"m.s-1","parameterCategory":1,"la1":30.2991,"la2":30.254,"lo1":-89.0895,"lo2":-89.0444,"dy":0.0017,"dx":0.0017,"nx":28,"ny":28,"refTime":"2023-11-09T03:00:00:Z","depth":0,"parameterNumber":2,"parameterNumberName":"U-component_of_WINDS"},"data":[0,0,0,0,0,0,0,0,0,0,0,0,0,0,0,0,0,0,0,0,0,0,0,0,0,0,0,0,0,0,0,0,0,0,0,0,0,0,0,0,0,0,0,0,0,0,0,0,0,0,0,0,0,0,0,0,0,0,-2.0104,-2.0105,0,-2.0214,-2.0215,-2.0216,-2.0227,-2.0225,-2.0224,-2.0223,-2.0334,-2.0338,-2.0341,0,0,0,0,0,0,0,0,0,0,0,0,0,-1.9902,-1.9905,-2.0104,-2.0105,-2.0107,-2.0213,-2.0215,-2.0216,-2.0227,-2.0225,-2.0224,-2.0223,-2.0332,-2.0337,-2.0342,0,0,0,0,0,0,0,0,0,0,0,0,0,-1.9998,-1.9906,-2.0104,-2.0125,-2.0128,-2.0213,-2.0215,-2.0217,-2.0227,-2.0225,-2.0224,-2.0222,-2.0331,-2.0337,-2.0343,-2.0414,0,0,-2.0361,-2.0363,0,0,0,0,0,0,0,0,-1.9993,-2.0006,-2.012,-2.0123,-2.0127,-2.0205,-2.0184,-2.0283,-2.0227,-2.0189,-2.0223,-2.0221,-2.0292,-2.0301,-2.0325,-2.0419,-2.0424,-2.0361,-2.0365,-2.0368,-2.0369,0,0,0,0,0,0,0,-1.9986,-2.0001,-2.0147,-2.0122,-2.0126,-2.0128,-2.014,-2.0203,-2.0249,-2.0192,-2.0193,-2.0206,-2.0293,-2.032,-2.0328,-2.0425,-2.0361,-2.0367,-2.037,-2.0373,-2.0583,-2.0585,0,0,0,0,0,0,-1.9976,-1.9995,-2.0144,-2.0151,-2.0054,-2.0133,-2.0146,-2.0181,-2.0248,-2.0257,-2.0208,-2.0206,-2.031,-2.0321,-2.0332,-2.0419,-2.0368,-2.0373,-2.0377,-2.0581,-2.0583,-2.0585,0,0,0,0,0,0,-1.9971,-1.9989,-2.0139,-2.0073,-2.0093,-2.0138,-2.0178,-2.0184,-2.0211,-2.026,-2.0268,-2.0226,-2.0309,-2.0323,-2.0393,-2.0423,-2.0376,-2.0381,-2.0578,-2.0582,-2.0584,-2.0595,0,0,0,0,0,0,-1.9965,-1.9987,-2.0015,-2.0074,-2.0096,-2.0199,-2.018,-2.0188,-2.0221,-2.022,-2.0279,-2.0287,-2.0309,-2.0384,-2.0399,-2.0431,-2.0386,-2.0576,-2.058,-2.0583,-2.0592,-2.0598,-2.0602,0,0,0,0,0,-1.9958,-2.0013,-2.0016,-2.0034,-2.0132,-2.0201,-2.0214,-2.0238,-2.0224,-2.0252,-2.0283,-2.0285,-2.0418,-2.0392,-2.0409,-2.0442,-2.0574,-2.0579,-2.0583,-2.0589,-2.0596,-2.0602,0,0,0,0,0,0,-1.9956,-2.0021,-2.0025,-2.0102,-2.0146,-2.0203,-2.0239,-2.0245,-2.0294,-2.0291,-2.0319,-2.0332,-2.0401,-2.0429,-2.0398,-2.0514,-2.0494,-2.0502,-2.0493,-2.0501,-2.0506,-2.0497,-2.0391,0,0,0,0,0,-1.9965,-2.0016,-2.007,-2.0132,-2.0154,-2.0193,-2.0224,-2.0239,-2.0286,-2.0304,-2.0341,-2.0386,-2.0437,-2.0471,-2.0521,-2.0596,-2.0609,-2.0628,-2.0633,-2.0637,-2.0643,-2.0684,-2.0693,-2.06,-2.06,-2.06,0,0,-1.9983,-2.0025,-2.0055,-2.0133,-2.0169,-2.022,-2.0208,-2.0264,-2.0302,-2.0312,-2.038,-2.0409,-2.0461,-2.0534,-2.0568,-2.0559,-2.0672,-2.0643,-2.0646,-2.065,-2.069,-2.0699,-2.0706,-2.0603,-2.0602,-2.0602,0,0,-2.0041,-2.0079,-2.0134,-2.0171,-2.0226,-2.0251,-2.0264,-2.0321,-2.034,-2.0409,-2.0418,-2.0464,-2.0553,-2.0589,-2.0619,-2.0692,-2.0695,-2.0708,-2.0735,-2.0775,-2.0782,-2.0789,-2.0814,-2.0823,-2.0714,-2.0714,-2.0714,0,-2.0056,-2.0135,-2.0161,-2.0217,-2.025,-2.0263,-2.0318,-2.0353,-2.0421,-2.0443,-2.0433,-2.0544,-2.058,-2.0661,-2.0679,-2.0704,-2.0719,-2.0701,-2.0779,-2.0786,-2.0793,-2.0817,-2.0826,-2.0715,-2.0715,-2.0715,-2.0715,0,-2.015,-2.0205,-2.0243,-2.0309,-2.0347,-2.0402,-2.0436,-2.0471,-2.0483,-2.051,-2.058,-2.0623,-2.0682,-2.0703,-2.0715,-2.0786,-2.0779,-2.0774,-2.0754,-2.0802,-2.0825,-2.0835,-2.0717,-2.0716,-2.0716,-2.0716,0,0,-2.0209,-2.029,-2.0303,-2.0333,-2.0395,-2.0438,-2.0493,-2.0552,-2.0581,-2.0628,-2.0674,-2.0749,-2.0745,-2.0779,-2.0796,-2.0831,-2.0885,-2.0822,-2.0823,-2.0831,-2.0964,-2.0966,-2.0976,-2.0888,-2.089,-2.0891,-2.0959,0,-2.0274,-2.0374,-2.0399,-2.0484,-2.0534,-2.0547,-2.0595,-2.0638,-2.0665,-2.0711,-2.074,-2.0792,-2.0783,-2.0804,-2.0839,-2.0871,-2.0912,-2.0866,-2.093,-2.0932,-2.0915,-2.0989,-2.0991,-2.1053,-2.0968,-2.097,-2.0971,0,-2.0363,-2.0412,-2.0501,-2.0556,-2.0578,-2.0621,-2.0677,-2.0721,-2.077,-2.0786,-2.0825,-2.0838,-2.0896,-2.0874,-2.0954,-2.0923,-2.0951,-2.097,-2.0973,-2.0979,-2.0953,-2.0995,-2.1073,-2.1082,-2.0986,-2.0985,-2.0984,0,-2.0395,-2.0484,-2.0549,-2.0574,-2.064,-2.067,-2.0699,-2.0746,-2.078,-2.0828,-2.085,-2.0904,-2.0934,-2.0976,-2.1003,-2.0985,-2.108,-2.1061,-2.1094,-2.1094,-2.1112,-2.111,-2.1195,-2.1133,-2.1133,-2.1133,-2.1133,0,-2.0464,-2.0517,-2.0564,-2.0604,-2.0664,-2.0693,-2.0752,-2.0782,-2.0824,-2.0869,-2.0884,-2.0926,-2.096,-2.1007,-2.1029,-2.1091,-2.1104,-2.1119,-2.1124,-2.1117,-2.1115,-2.1134,-2.113,-2.1135,-2.1135,-2.1134,-2.1134,0,-2.0509,-2.0543,-2.0614,-2.0672,-2.0687,-2.0729,-2.0778,-2.0817,-2.0844,-2.0901,-2.0916,-2.0958,-2.1014,-2.1046,-2.1116,-2.1131,-2.1199,-2.1203,-2.1182,-2.1184,-2.1215,-2.1211,-2.1314,-2.1329,-2.1258,-2.1259,-2.1259,0,-2.055,-2.0592,-2.0654,-2.0685,-2.0715,-2.0765,-2.08,-2.083,-2.0865,-2.0924,-2.0955,-2.1012,-2.1059,-2.1147,-2.1184,-2.1237,-2.1241,-2.1274,-2.1249,-2.1241,-2.124,-2.1237,-2.124,-2.1277,-2.1278,-2.1278,-2.1279,0,-2.0618,-2.0633,-2.0682,-2.0737,-2.0778,-2.0822,-2.0866,-2.0891,-2.0929,-2.0967,-2.1025,-2.1061,-2.1133,-2.1188,-2.1245,-2.1275,-2.1283,-2.1286,-2.1297,-2.1289,-2.1275,-2.1282,-2.1192,-2.1283,-2.1283,-2.1283,-2.1282,-2.1282,-2.0662,-2.0699,-2.0749,-2.0803,-2.0839,-2.088,-2.0919,-2.0952,-2.1,-2.1061,-2.1076,-2.1136,-2.1184,-2.1261,-2.1292,-2.1339,-2.1333,-2.1348,-2.1352,-2.1355,-2.1355,-2.1269,-2.1349,-2.1349,-2.1349,-2.1349,-2.1349,0,-2.073,-2.0762,-2.0812,-2.0873,-2.0916,-2.0921,-2.097,-2.1005,-2.1058,-2.1102,-2.1148,-2.1213,-2.1267,-2.1309,-2.1364,-2.1394,-2.1399,-2.1407,-2.1404,-2.1411,-2.1358,-2.1342,-2.1402,-2.1402,-2.1402,-2.1402,-2.1402,-2.1402,-2.077,-2.0833,-2.0854,-2.0935,-2.0967,-2.1026,-2.1054,-2.1092,-2.1127,-2.1199,-2.1245,-2.1272,-2.1315,-2.1373,-2.1423,-2.1434,-2.1453,-2.146,-2.1472,-2.1421,-2.1415,-2.1409,-2.1395,-2.1465,-2.1465,-2.1521,-2.1521,-2.1522]},{"header":{"parameterUnit":"m.s-1","parameterCategory":1,"la1":30.2991,"la2":30.254,"lo1":-89.0895,"lo2":-89.0444,"dy":0.0017,"dx":0.0017,"nx":28,"ny":28,"refTime":"2023-11-09T03:00:00:Z","depth":0,"parameterNumber":3,"parameterNumberName":"V-component_of_WINDS"},"data":[0,0,0,0,0,0,0,0,0,0,0,0,0,0,0,0,0,0,0,0,0,0,0,0,0,0,0,0,0,0,0,0,0,0,0,0,0,0,0,0,0,0,0,0,0,0,0,0,0,0,0,0,0,0,0,0,0,0,2.2803,2.2803,0,2.2854,2.2855,2.2856,2.2906,2.2907,2.2908,2.2908,2.2956,2.2957,2.2958,0,0,0,0,0,0,0,0,0,0,0,0,0,2.2745,2.2746,2.2803,2.2803,2.2804,2.2854,2.2855,2.2856,2.2906,2.2907,2.2908,2.2908,2.2956,2.2957,2.2958,0,0,0,0,0,0,0,0,0,0,0,0,0,2.278,2.2746,2.2803,2.2835,2.2839,2.2854,2.2855,2.2856,2.2906,2.2907,2.2908,2.2909,2.2956,2.2957,2.2958,2.2944,0,0,2.2961,2.2961,0,0,0,0,0,0,0,0,2.2778,2.2783,2.283,2.2833,2.2837,2.2875,2.2852,2.2885,2.2906,2.288,2.2908,2.2909,2.2928,2.2932,2.2939,2.2946,2.2948,2.2961,2.2962,2.2962,2.2962,0,0,0,0,0,0,0,2.2776,2.2781,2.2823,2.2831,2.2835,2.2847,2.2853,2.2859,2.2898,2.2883,2.2886,2.2892,2.293,2.2938,2.294,2.2949,2.2961,2.2962,2.2962,2.2963,2.2949,2.2948,0,0,0,0,0,0,2.2769,2.2778,2.2821,2.2825,2.281,2.2847,2.2854,2.2862,2.2898,2.2905,2.2891,2.2894,2.2936,2.2939,2.2942,2.293,2.2962,2.2963,2.2964,2.295,2.2949,2.2948,0,0,0,0,0,0,2.2768,2.2772,2.2819,2.2803,2.281,2.2847,2.2855,2.2862,2.287,2.2904,2.2911,2.2892,2.2937,2.2941,2.2944,2.2932,2.2963,2.2964,2.2951,2.2949,2.2948,2.2904,0,0,0,0,0,0,2.2766,2.2772,2.2767,2.2802,2.281,2.2821,2.2855,2.2862,2.2872,2.2876,2.2907,2.2913,2.2938,2.2942,2.2945,2.2934,2.2965,2.2952,2.295,2.2949,2.2907,2.2901,2.2896,0,0,0,0,0,2.2763,2.2751,2.2767,2.2772,2.2806,2.282,2.2825,2.2855,2.2871,2.2867,2.2889,2.2912,2.2933,2.2942,2.2945,2.2935,2.2953,2.2951,2.2949,2.2909,2.2902,2.2897,0,0,0,0,0,0,2.2712,2.2756,2.2774,2.2773,2.2793,2.2829,2.2824,2.2846,2.2861,2.2864,2.2899,2.2906,2.2905,2.292,2.2929,2.2924,2.2946,2.2945,2.2915,2.2909,2.2904,2.2901,2.2966,0,0,0,0,0,2.27,2.271,2.2747,2.2743,2.2752,2.2786,2.2793,2.2815,2.2837,2.2845,2.2867,2.2886,2.2897,2.2903,2.2915,2.2909,2.2917,2.2903,2.2898,2.2894,2.2892,2.2892,2.2887,2.2941,2.2941,2.2941,0,0,2.2676,2.2702,2.2705,2.2733,2.2751,2.2759,2.2793,2.2799,2.2806,2.2845,2.2851,2.2868,2.2891,2.2889,2.289,2.2902,2.2879,2.2891,2.2887,2.2888,2.2889,2.2884,2.2879,2.2939,2.2939,2.294,0,0,2.2638,2.2658,2.2657,2.2675,2.2703,2.2726,2.2726,2.2759,2.2773,2.2779,2.2809,2.2816,2.2834,2.285,2.286,2.283,2.2852,2.2832,2.2806,2.2805,2.2801,2.2798,2.2788,2.2784,2.283,2.283,2.283,0,2.2605,2.262,2.2654,2.266,2.2672,2.2709,2.2709,2.2724,2.2753,2.276,2.2773,2.2798,2.2816,2.282,2.2813,2.2819,2.282,2.283,2.2799,2.2796,2.2793,2.2785,2.2781,2.2828,2.2828,2.2829,2.2829,0,2.2578,2.2588,2.2584,2.2615,2.2625,2.2628,2.2662,2.2669,2.2689,2.2711,2.2717,2.274,2.2759,2.2761,2.278,2.2768,2.2775,2.2793,2.2816,2.2785,2.2778,2.2775,2.2825,2.2825,2.2826,2.2827,0,0,2.2508,2.2559,2.2557,2.2572,2.2606,2.2614,2.2618,2.2638,2.2644,2.2662,2.2667,2.2682,2.27,2.2712,2.2733,2.2732,2.2709,2.2751,2.2752,2.2744,2.2699,2.2686,2.2682,2.2723,2.2723,2.2722,2.2697,0,2.2477,2.249,2.2521,2.2523,2.2534,2.257,2.2574,2.2595,2.2615,2.2626,2.2648,2.2659,2.2681,2.2688,2.2689,2.2712,2.2701,2.2714,2.2728,2.2729,2.2723,2.2678,2.2664,2.2639,2.2695,2.2694,2.2694,0,2.2442,2.2462,2.2466,2.2501,2.2507,2.251,2.2532,2.2542,2.2566,2.2581,2.2595,2.2619,2.2626,2.2646,2.2656,2.2664,2.2672,2.2684,2.2684,2.2687,2.271,2.2681,2.2632,2.2629,2.2689,2.269,2.269,0,2.2393,2.242,2.2427,2.2438,2.2479,2.2481,2.2497,2.2523,2.2534,2.2552,2.2559,2.2577,2.2587,2.2599,2.2628,2.264,2.2635,2.2657,2.2648,2.2647,2.2646,2.2646,2.2598,2.2648,2.2648,2.2648,2.2648,0,2.2356,2.2357,2.2406,2.241,2.2413,2.2448,2.245,2.247,2.2492,2.2501,2.2532,2.2539,2.2576,2.2586,2.2608,2.2614,2.2617,2.263,2.2636,2.2628,2.2626,2.2634,2.2637,2.2647,2.2647,2.2647,2.2648,0,2.2302,2.2335,2.2345,2.2384,2.2393,2.2394,2.2427,2.2432,2.2454,2.2464,2.2469,2.2504,2.2518,2.2548,2.257,2.2585,2.2586,2.2595,2.2578,2.2582,2.2571,2.2573,2.2528,2.2525,2.2575,2.2574,2.2574,0,2.2277,2.228,2.232,2.2329,2.2345,2.2358,2.237,2.2405,2.2416,2.2445,2.2446,2.2464,2.248,2.2501,2.2528,2.2545,2.2556,2.254,2.2559,2.2552,2.2558,2.2559,2.256,2.2536,2.2535,2.2534,2.2534,0,2.223,2.2246,2.2263,2.2286,2.23,2.2319,2.2339,2.2344,2.2383,2.2394,2.241,2.2423,2.2447,2.2464,2.2485,2.2501,2.2524,2.2528,2.2527,2.2519,2.251,2.2517,2.2568,2.2529,2.2529,2.253,2.253,2.253,2.2191,2.2196,2.2226,2.2244,2.2263,2.2282,2.229,2.2314,2.2329,2.2353,2.2372,2.2387,2.2412,2.2444,2.2459,2.2471,2.2482,2.248,2.248,2.2479,2.2476,2.2507,2.2474,2.2475,2.2475,2.2475,2.2475,0,2.2147,2.2169,2.2185,2.2214,2.2228,2.225,2.2274,2.2284,2.2298,2.2321,2.2337,2.2356,2.2373,2.2402,2.2421,2.2425,2.2436,2.2429,2.243,2.2434,2.2464,2.2465,2.242,2.242,2.242,2.242,2.242,2.242,2.2126,2.2136,2.2156,2.2177,2.2198,2.2215,2.2227,2.2244,2.2263,2.2284,2.2299,2.2319,2.2344,2.2365,2.2382,2.239,2.2396,2.2386,2.2397,2.2426,2.2431,2.2436,2.2436,2.2387,2.2387,2.2366,2.2365,2.2365]}]]